Rock Hill, SC

4:19 PM EDT on August 21, 2017 (GMT -0400)
Rock Hill-York County-Bryant

Weather History for KUZA - January, 2013

Change the Weather History Date:

Tuesday, January 8, 2013

  Actual Average Record
Temperature  
Mean Temperature 40 °F -  
Max Temperature 52 °F 50 °F 70 °F (2005)
Min Temperature 28 °F 32 °F 8 °F (1970)
Degree Days  
Heating Degree Days 25    
Moisture  
Dew Point 35 °F    
Average Humidity 78    
Maximum Humidity 100    
Minimum Humidity 56    
Precipitation  
Precipitation 0.00 in - - ()
Sea Level Pressure  
Sea Level Pressure 30.41 in    
Wind  
Wind Speed 3 mph (NNE)    
Max Wind Speed 6 mph    
Max Gust Speed -    
Visibility 7 miles    
Events      
Averages and records for this station are not official NWS values.
T = Trace of Precipitation, MM = Missing Value Source: NWS Daily Summary

Daily Weather History Graph

Daily Weather History Graph

Search for Another Location

Airport or City:

Trip Planner

Search our weather history database for the weather conditions in past years. The results will help you decide how hot, cold, wet, or windy it might be!

Date:

Astronomy

Jan. 08, 2013 Rise Set
Actual Time 7:32 AM EST 5:29 PM EST
Civil Twilight 7:04 AM EST 5:57 PM EST
Nautical Twilight 6:33 AM EST 6:28 PM EST
Astronomical Twilight 6:02 AM EST 6:59 PM EST
Moon 4:04 AM EST (1/8) 2:30 PM EST (1/8)
Length of Visible Light 10h 52m
Length of Day
9h 56m
Waning Crescent, 14% of the Moon is Illuminated
Jan 8
Waning Crescent
Jan 11
New
Jan 18
First Quarter
Jan 26
Full
Feb 3
Last Quarter

Hourly Weather History & Observations

Time (EST) Temp. Windchill Dew Point Humidity Pressure Visibility Wind Dir Wind Speed Gust Speed Precip Events Conditions
12:54 AM 28.0 °F 21.7 °F 27.0 °F 96% 30.41 in 5.0 mi NNE 5.8 mph - N/A   Clear
1:54 AM 30.0 °F - 28.0 °F 92% 30.41 in 6.0 mi Calm Calm - N/A   Scattered Clouds
2:54 AM 28.9 °F - 28.0 °F 96% 30.40 in 6.0 mi Calm Calm - N/A   Partly Cloudy
3:54 AM 30.9 °F - 28.9 °F 92% 30.40 in 6.0 mi Calm Calm - N/A   Mostly Cloudy
4:42 AM 34.0 °F 31.0 °F 34.0 °F 100% 30.37 in 6.0 mi NNE 3.5 mph - N/A   Overcast
4:54 AM 35.1 °F - 34.0 °F 96% 30.39 in 6.0 mi Calm Calm - N/A   Overcast
5:54 AM 36.0 °F - 35.1 °F 97% 30.41 in 5.0 mi Calm Calm - N/A   Overcast
6:54 AM 32.0 °F 27.5 °F 30.0 °F 92% 30.43 in 6.0 mi NNE 4.6 mph - N/A   Partly Cloudy
7:54 AM 34.0 °F - 32.0 °F 92% 30.44 in 4.0 mi Calm Calm - N/A   Overcast
8:51 AM 39.2 °F 35.9 °F 35.6 °F 87% 30.43 in 6.0 mi NNE 4.6 mph - N/A   Overcast
8:54 AM 39.0 °F 34.8 °F 35.1 °F 86% 30.46 in 6.0 mi NNE 5.8 mph - N/A   Overcast
9:54 AM 42.1 °F 40.2 °F 35.1 °F 76% 30.47 in 7.0 mi NE 3.5 mph - N/A   Overcast
10:54 AM 45.0 °F 42.6 °F 36.0 °F 71% 30.47 in 7.0 mi North 4.6 mph - N/A   Overcast
11:54 AM 48.9 °F - 36.0 °F 61% 30.44 in 8.0 mi Variable 3.5 mph - N/A   Overcast
12:54 PM 50.0 °F - 36.0 °F 59% 30.42 in 8.0 mi NE 4.6 mph - N/A   Overcast
1:21 PM 51.1 °F - 36.0 °F 56% 30.38 in 8.0 mi Variable 3.5 mph - N/A   Overcast
1:54 PM 51.1 °F - 37.0 °F 59% 30.40 in 8.0 mi East 3.5 mph - N/A   Overcast
2:54 PM 52.0 °F - 37.0 °F 57% 30.38 in 8.0 mi Calm Calm - N/A   Overcast
3:54 PM 52.0 °F - 37.9 °F 59% 30.38 in 9.0 mi Calm Calm - N/A   Overcast
4:54 PM 52.0 °F - 37.9 °F 59% 30.38 in 9.0 mi NNW 4.6 mph - N/A   Overcast
5:54 PM 51.1 °F - 39.0 °F 63% 30.39 in 10.0 mi North 4.6 mph - N/A   Overcast
6:54 PM 50.0 °F - 39.0 °F 66% 30.40 in 10.0 mi NNE 3.5 mph - N/A   Overcast
7:54 PM 50.0 °F - 39.0 °F 66% 30.41 in 10.0 mi Calm Calm - N/A   Overcast
8:54 PM 46.9 °F - 39.0 °F 74% 30.42 in 10.0 mi Calm Calm - N/A   Overcast
9:54 PM 43.0 °F - 39.0 °F 86% 30.40 in 10.0 mi Calm Calm - N/A   Scattered Clouds
10:54 PM 46.0 °F - 39.9 °F 79% 30.40 in 8.0 mi Calm Calm - N/A   Overcast